Probability
0 0 0 0 0 0 0 0 0 0 0 0 0 0 0 0 0 0 0 0 0 0 0 0 0 0 0 0 0 0 0 0 0 0 0 0 0 0 0 0 0 0 0 0
0 0 0 0 0 0 0 0 0 0 0 0 0 0 0 0 0 0 0 0 0 0 0 0 0 0 0 0 0 0 0 0 0 0 0 0 0 0 0 0 0 0 0 0
0 0 0 0 0 0 0 0 0 0 0 0 0 0 0 0 0 0 0 0 0 0 0 0 0 0 0 0 0 0 0 0 0 0 0 0 0 0 0 0 0 0 0 0
0 6 0 0 0 0 0 0 0 0 0 0 0 0 0 0 0 0 0 0 0 0 0 0 0 0 0 0 0 0 0 0 0 0 0 0 0 0 0 0 0 0 0 0
0 0 0 0 0 0 0 0 0 0 0 0 0 0 0 0 0 0 0 0 0 0 0 0 0 0 0 0 0 0 0 0 0 0 0 0 0 0 0 0 0 0 0 0
3 0 0 0 0 0 0 0 0 0 0 0 0 0 0 0 0 0 0 0 0 0 0 0 0 0 0 0 0 0 0 0 0 0 0 0 0 0 0 0 0 0 0 0
0 6 0 0 0 0 0 0 0 0 0 0 0 0 0 0 0 0 0 0 0 0 0 0 0 0 0 0 0 0 0 0 0 0 0 0 0 0 0 0 0 0 0 0
13 0 0 0 0 0 0 0 0 0 0 0 0 0 0 0 0 0 0 0 0 0 0 0 0 0 0 0 0 0 0 0 0 0 0 0 0 0 0 0 0 0 0 0
0 0 6 0 0 0 0 0 0 0 0 0 0 0 0 0 0 0 0 0 0 0 0 0 0 0 0 0 0 0 0 0 0 0 0 0 0 0 0 0 0 0 0 0
0 0 0 0 0 0 0 0 0 0 0 0 0 0 0 0 0 0 0 0 0 0 0 0 0 0 0 0 0 0 0 0 0 0 0 0 0 0 0 0 0 0 0 0
3 0 0 0 0 0 0 0 0 0 0 0 0 0 0 0 0 0 0 0 0 0 0 0 0 0 0 0 0 0 0 0 0 0 0 0 0 0 0 0 0 0 0 0
0 0 0 0 0 0 0 0 0 0 0 0 0 0 0 0 0 0 0 0 0 0 0 0 0 0 0 0 0 0 0 0 0 0 0 0 0 0 0 0 0 0 0 0
0 0 0 0 0 0 0 0 0 0 0 0 0 0 0 0 0 0 0 0 0 0 0 0 0 0 0 0 0 0 0 0 0 0 0 0 0 0 0 0 0 0 0 0
0 0 0 0 0 0 0 0 0 0 0 0 0 0 0 0 0 0 0 0 0 0 0 0 0 0 0 0 0 0 0 0 0 0 0 0 0 0 0 0 0 0 0 0
0 0 0 0 0 0 0 0 0 0 0 0 0 0 0 0 0 0 0 0 0 0 0 0 0 0 0 0 0 0 0 0 0 0 0 0 0 0 0 0 0 0 0 0
0 0 0 0 0 0 0 0 0 0 0 0 0 0 0 0 0 0 0 0 0 0 0 0 0 0 0 0 0 0 0 0 0 0 0 0 0 0 0 0 0 0 0 0
0 0 0 0 0 0 0 0 0 0 0 0 0 0 0 0 0 0 0 0 0 0 0 0 0 0 0 0 0 0 0 0 0 0 0 0 0 0 0 0 0 0 0 0
0 0 0 0 0 0 0 0 0 0 0 0 0 0 0 0 0 0 0 0 0 0 0 0 0 0 0 0 0 0 0 0 0 0 0 0 0 0 0 0 0 0 0 0
0 0 0 0 0 0 0 0 0 0 0 0 0 0 0 0 0 0 0 0 0 0 0 0 0 0 0 0 0 0 0 0 0 0 0 0 0 0 0 0 0 0 0 0
0 0 0 0 0 0 0 0 0 0 0 0 0 0 0 0 0 0 0 0 0 0 0 0 0 0 0 0 0 0 0 0 0 0 0 0 0 0 0 0 0 0 0 0
0 0 0 0 0 0 0 0 0 0 0 0 0 0 0 0 0 0 0 0 0 0 0 0 0 0 0 0 0 0 0 0 0 0 0 0 0 0 0 0 0 0 0 0
0 0 0 0 0 0 0 0 0 0 0 0 0 0 0 0 0 0 0 0 0 0 0 0 0 0 0 0 0 0 0 0 0 0 0 0 0 0 0 0 0 0 0 0
0 0 0 0 0 0 0 0 0 0 0 0 0 0 0 0 0 0 0 0 0 0 0 0 0 0 0 0 0 0 0 0 0 0 0 0 0 0 0 0 0 0 0 0
0 0 0 0 0 0 0 0 0 3 0 3 0 3 0 0 0 0 0 0 0 0 0 0 0 0 0 0 0 0 0 0 0 0 0 0 0 0 0 0 0 0 0 0
0 0 0 0 0 0 0 0 3 6 3 0 0 0 0 0 0 0 0 0 0 0 0 0 0 0 0 0 0 0 0 0 0 0 0 0 0 0 0 0 0 0 0 0
0 0 0 0 0 0 0 0 0 0 0 0 3 0 0 0 0 0 0 0 0 0 0 0 0 0 0 0 0 0 0 0 0 0 0 0 0 0 0 0 0 0 0 0
0 0 0 0 0 0 0 0 0 0 0 3 0 0 0 0 0 0 0 0 0 0 0 0 0 0 0 0 0 0 0 0 0 0 0 0 0 0 0 0 0 0 0 0
Height
5860 5860 5858 5857 5855 5853 5850 5848 5846 5844 5840 5835 5831 5827 5822 5817 5811 5805 5798 5791 5784 5776 5768 5760 5751 5743 5734 5725 5717 5710 5702 5694 5687 5681 5674 5668 5663 5656 5650 5643 5636 5630 5623 5617
5858 5857 5856 5855 5852 5850 5847 5845 5842 5840 5836 5831 5827 5822 5818 5812 5806 5800 5793 5786 5778 5769 5760 5752 5743 5734 5725 5717 5709 5700 5692 5685 5677 5670 5663 5657 5650 5643 5636 5628 5620 5612 5604 5597
5855 5854 5853 5853 5850 5847 5845 5842 5839 5836 5833 5827 5823 5818 5814 5808 5802 5795 5788 5779 5771 5762 5753 5744 5735 5726 5717 5708 5700 5692 5683 5675 5667 5660 5653 5645 5638 5630 5621 5613 5604 5595 5586 5578
5853 5852 5850 5851 5846 5844 5841 5838 5835 5831 5827 5823 5818 5812 5808 5803 5796 5789 5781 5772 5763 5755 5746 5737 5727 5718 5709 5700 5692 5683 5675 5666 5658 5650 5643 5634 5626 5617 5608 5599 5589 5580 5571 5563
5850 5848 5847 5846 5842 5840 5837 5834 5831 5827 5823 5819 5814 5807 5801 5797 5789 5782 5774 5765 5757 5748 5739 5730 5721 5712 5702 5693 5684 5675 5667 5658 5649 5641 5633 5624 5615 5606 5597 5587 5577 5567 5558 5550
5846 5844 5843 5842 5838 5836 5834 5828 5826 5822 5818 5814 5809 5805 5798 5790 5784 5776 5768 5760 5752 5743 5733 5724 5715 5705 5696 5686 5677 5668 5659 5650 5641 5633 5624 5615 5606 5596 5586 5576 5566 5557 5548 5540
5842 5840 5839 5835 5833 5832 5829 5825 5821 5816 5812 5808 5804 5799 5794 5786 5779 5771 5763 5754 5746 5737 5727 5718 5709 5699 5689 5680 5670 5661 5652 5643 5634 5625 5616 5607 5597 5587 5578 5568 5559 5549 5540 5532
5839 5837 5836 5829 5828 5826 5823 5819 5815 5812 5808 5803 5799 5793 5787 5780 5773 5765 5757 5749 5740 5731 5722 5712 5703 5693 5684 5674 5664 5655 5646 5637 5628 5618 5609 5599 5590 5580 5571 5561 5552 5543 5534 5526
5835 5833 5828 5825 5822 5819 5816 5813 5810 5806 5802 5798 5793 5787 5781 5774 5767 5759 5752 5743 5735 5726 5717 5707 5698 5688 5678 5668 5658 5649 5640 5631 5622 5612 5603 5593 5584 5574 5565 5556 5547 5538 5529 5521
5828 5827 5823 5819 5816 5813 5810 5807 5804 5800 5796 5792 5787 5781 5775 5769 5761 5754 5746 5738 5730 5721 5712 5703 5693 5683 5673 5663 5653 5644 5635 5625 5616 5607 5598 5588 5579 5570 5561 5552 5544 5535 5526 5518
5822 5819 5816 5814 5810 5807 5804 5801 5798 5794 5790 5786 5781 5775 5769 5763 5756 5748 5741 5733 5725 5716 5707 5698 5688 5678 5668 5658 5648 5639 5630 5621 5612 5603 5593 5584 5575 5566 5557 5549 5541 5532 5524 5517
5816 5814 5810 5807 5804 5801 5798 5796 5792 5789 5784 5779 5774 5769 5763 5756 5750 5743 5735 5727 5719 5711 5702 5693 5683 5673 5663 5653 5644 5635 5626 5617 5608 5599 5590 5581 5572 5563 5554 5547 5539 5531 5524 5518
5809 5807 5804 5801 5798 5795 5792 5789 5786 5782 5778 5773 5768 5762 5756 5750 5743 5737 5729 5722 5714 5706 5697 5688 5679 5669 5659 5649 5640 5631 5622 5613 5605 5596 5587 5578 5570 5561 5553 5546 5539 5532 5525 5520
5802 5800 5798 5795 5792 5789 5786 5782 5779 5774 5770 5765 5761 5755 5749 5743 5737 5730 5723 5716 5708 5700 5692 5684 5675 5665 5655 5646 5637 5628 5619 5610 5602 5594 5585 5577 5568 5560 5553 5545 5539 5533 5527 5522
5795 5792 5790 5788 5785 5782 5779 5775 5771 5767 5762 5757 5752 5747 5742 5736 5729 5723 5717 5710 5703 5695 5687 5679 5670 5661 5652 5643 5633 5625 5616 5608 5600 5592 5584 5576 5568 5560 5553 5546 5539 5534 5529 5525
5787 5785 5782 5779 5777 5774 5770 5766 5762 5758 5753 5748 5743 5738 5733 5727 5722 5716 5710 5703 5697 5690 5682 5674 5666 5658 5649 5639 5631 5622 5614 5606 5599 5591 5583 5575 5568 5560 5553 5547 5541 5535 5531 5527
5778 5775 5773 5770 5767 5764 5761 5757 5753 5748 5744 5739 5734 5729 5725 5719 5714 5709 5703 5696 5690 5684 5677 5670 5662 5654 5645 5636 5628 5620 5612 5605 5598 5590 5583 5576 5568 5561 5555 5548 5543 5537 5533 5529
5767 5765 5762 5760 5757 5754 5750 5747 5743 5739 5735 5730 5725 5720 5716 5711 5706 5701 5696 5690 5684 5678 5671 5665 5657 5650 5642 5634 5625 5617 5610 5604 5597 5590 5583 5576 5570 5563 5556 5550 5545 5540 5535 5531
5756 5753 5750 5748 5745 5742 5739 5736 5732 5728 5724 5720 5716 5711 5707 5703 5698 5693 5688 5683 5678 5672 5666 5659 5652 5645 5638 5630 5623 5615 5608 5602 5596 5590 5584 5577 5571 5565 5558 5553 5548 5542 5538 5534
5744 5741 5738 5736 5733 5730 5727 5724 5721 5717 5714 5710 5706 5702 5698 5694 5689 5684 5680 5675 5670 5665 5659 5653 5647 5641 5634 5627 5620 5613 5607 5601 5595 5590 5584 5578 5572 5566 5561 5556 5551 5546 5541 5537
5731 5729 5726 5723 5720 5717 5714 5711 5708 5705 5701 5699 5695 5691 5688 5684 5679 5675 5671 5667 5662 5657 5652 5647 5642 5636 5630 5623 5617 5611 5605 5599 5594 5589 5584 5579 5574 5568 5563 5558 5554 5550 5545 5541
5716 5714 5711 5708 5706 5703 5700 5697 5694 5691 5688 5685 5682 5679 5676 5672 5668 5665 5662 5658 5654 5650 5645 5641 5636 5631 5625 5620 5614 5608 5602 5597 5593 5588 5584 5580 5575 5570 5565 5561 5556 5553 5549 5545
5699 5697 5694 5692 5689 5687 5684 5681 5678 5675 5672 5670 5668 5666 5663 5660 5657 5654 5651 5648 5645 5641 5638 5634 5629 5625 5620 5615 5610 5605 5600 5595 5591 5587 5583 5580 5576 5572 5568 5563 5559 5556 5552 5549
5681 5678 5676 5674 5671 5669 5667 5665 5662 5659 5657 5655 5653 5652 5650 5647 5645 5642 5640 5638 5635 5632 5629 5626 5622 5619 5615 5610 5606 5601 5597 5592 5588 5585 5582 5579 5576 5573 5569 5566 5562 5559 5556 5553
5662 5660 5657 5655 5653 5651 5649 5647 5645 5643 5641 5639 5638 5637 5636 5634 5632 5630 5628 5627 5625 5622 5620 5618 5615 5612 5608 5605 5601 5597 5593 5589 5586 5583 5580 5578 5576 5573 5570 5567 5565 5562 5559 5557
5644 5642 5639 5637 5635 5633 5632 5630 5628 5627 5625 5623 5623 5622 5621 5620 5620 5618 5617 5616 5615 5613 5611 5609 5607 5605 5602 5599 5596 5592 5589 5586 5582 5580 5578 5576 5574 5573 5571 5569 5566 5564 5562 5560
5623 5622 5620 5619 5617 5616 5615 5614 5613 5611 5610 5608 5607 5607 5607 5606 5606 5606 5605 5605 5604 5603 5602 5600 5599 5597 5595 5592 5590 5587 5584 5581 5579 5576 5575 5573 5572 5571 5570 5569 5567 5566 5564 5563
Wind_Speed
8 10 11 12 13 14 14 14 14 17 20 24 24 25 27 28 30 33 35 38 40 42 43 43 44 44 45 45 45 45 45 44 43 43 42 42 43 44 47 49 50 51 52 53
8 9 11 13 15 16 16 17 18 19 21 24 25 27 28 29 32 34 37 39 41 43 44 44 45 45 45 46 46 46 45 44 44 43 42 42 44 45 47 49 49 50 51 51
9 9 10 13 16 18 19 19 21 22 24 25 25 28 29 30 33 35 38 40 42 44 45 45 46 46 46 46 46 46 45 45 44 43 42 43 44 46 47 48 49 49 48 47
11 9 10 15 18 20 21 21 21 23 25 26 28 31 31 31 34 37 40 42 44 45 45 46 46 46 47 47 47 46 46 45 44 43 43 43 45 46 47 47 47 46 44 42
14 12 11 15 22 21 22 23 21 22 24 25 28 32 35 34 37 40 42 43 44 45 46 46 46 47 47 47 47 47 46 44 44 43 43 44 45 46 46 46 44 42 40 39
17 16 13 16 21 21 24 27 23 24 26 28 29 30 34 36 38 40 42 43 44 44 46 46 47 47 47 48 47 46 45 44 43 43 44 44 45 45 44 43 41 39 38 36
20 19 18 23 23 23 26 27 26 27 28 29 30 31 33 35 38 40 42 43 43 45 46 47 48 48 48 48 47 46 45 44 43 43 44 44 44 43 43 41 39 38 36 33
22 21 22 27 27 27 27 26 26 27 28 29 30 31 34 36 39 41 42 42 43 44 46 48 49 48 48 48 47 46 45 43 42 43 43 43 42 41 40 38 37 36 34 30
21 24 28 29 29 29 28 27 26 27 28 29 30 32 35 37 39 41 42 42 43 44 46 47 49 49 49 48 47 45 44 42 42 42 42 41 40 39 38 37 36 35 32 28
22 22 26 28 29 29 28 27 27 27 28 29 31 33 36 38 39 40 41 42 43 43 45 47 48 49 49 48 46 45 44 42 41 41 41 39 39 39 37 35 35 33 30 25
25 24 26 26 27 28 28 27 27 27 29 30 32 34 37 38 39 40 41 41 42 43 45 47 48 49 49 48 46 44 43 42 40 40 40 38 37 37 36 34 33 31 28 24
25 26 27 27 28 28 27 27 27 28 30 32 34 36 37 39 39 40 40 41 42 43 45 47 49 49 49 48 46 44 43 41 40 39 38 37 36 36 35 33 30 28 25 22
27 26 26 27 28 28 28 28 29 30 32 33 35 37 38 39 39 40 41 41 42 43 45 47 48 49 49 48 45 44 42 40 39 38 37 36 35 34 33 31 28 26 23 20
28 28 27 26 27 29 30 31 32 33 35 36 37 38 39 40 40 41 41 42 43 44 45 47 48 48 48 47 45 43 41 39 38 37 36 35 34 34 32 29 26 23 21 18
28 29 28 28 29 30 31 33 34 36 38 39 40 40 41 41 41 41 41 42 43 43 44 46 47 47 47 46 44 42 40 38 36 35 35 34 33 33 30 27 24 21 19 17
30 31 31 32 33 34 35 37 38 39 41 42 43 42 42 42 42 41 41 42 42 42 44 45 46 46 45 45 43 41 39 37 35 34 33 33 33 31 29 26 23 20 18 15
34 35 36 37 37 38 40 41 42 42 43 44 44 44 43 43 42 42 42 42 42 42 43 44 44 44 44 43 42 39 37 35 33 32 32 32 32 31 27 24 23 21 18 15
39 40 41 41 42 42 43 43 43 43 44 44 44 44 43 43 42 42 42 42 42 42 42 42 42 42 42 42 40 38 36 33 31 30 30 30 30 29 26 24 22 21 19 16
42 44 44 45 45 46 45 44 44 44 45 44 44 44 44 44 43 42 42 41 41 42 41 40 39 40 40 40 39 36 34 32 30 29 28 28 28 27 25 22 21 20 18 17
45 46 47 47 48 48 48 47 47 46 46 45 45 45 45 45 44 43 43 41 41 40 39 37 37 37 38 38 37 35 32 30 28 26 25 25 26 25 23 20 20 20 18 18
48 48 49 50 51 51 51 51 50 49 48 47 47 46 47 46 44 43 42 41 39 37 36 35 35 35 35 35 34 33 30 28 26 24 22 22 23 23 21 19 18 18 18 17
52 52 52 53 53 54 53 53 53 51 51 50 49 49 48 47 45 44 42 40 38 36 34 33 33 33 33 33 32 31 29 26 24 22 20 19 20 20 20 18 17 17 17 17
57 57 57 57 57 57 56 55 55 54 54 53 52 50 48 47 47 46 44 41 38 35 34 32 31 30 30 30 30 29 27 24 22 19 18 17 17 17 17 17 16 15 16 16
60 61 61 61 60 59 58 57 56 56 55 55 53 51 49 47 46 44 42 40 38 35 33 31 30 29 28 28 27 26 25 23 20 18 16 15 14 14 14 15 14 14 13 14
61 62 61 61 60 59 58 57 56 56 55 54 52 50 48 45 44 43 42 38 36 35 33 31 29 28 27 26 25 24 23 21 19 16 14 13 12 11 11 11 11 11 11 12
61 60 59 59 58 57 56 55 54 54 53 52 50 48 46 44 43 41 40 38 35 34 33 31 29 27 25 24 23 22 21 20 17 15 13 11 10 9 8 8 9 9 9 9
61 60 59 57 56 54 53 51 50 49 48 47 46 44 44 42 41 40 38 37 36 34 32 30 27 24 22 22 21 20 20 18 16 14 12 11 9 8 7 6 6 6 6 7
Wind_Direction
293 293 298 304 304 305 309 312 310 309 310 314 324 325 327 328 329 331 332 332 332 332 331 330 329 328 326 325 324 323 321 319 316 312 309 306 305 304 304 303 301 299 295 291
297 296 300 310 311 311 313 315 316 317 315 318 325 325 328 330 330 332 332 332 332 332 332 332 331 330 329 327 326 325 324 322 319 316 313 311 310 310 309 308 306 303 300 295
298 292 301 307 305 308 312 315 316 317 317 320 322 323 328 330 329 331 332 333 334 335 335 334 333 332 331 330 329 327 326 324 322 319 317 316 315 314 314 313 310 308 303 298
306 300 304 305 302 307 311 311 314 315 317 322 324 325 329 331 330 333 335 336 337 337 336 336 335 334 333 332 331 330 328 327 324 323 321 320 319 319 318 317 315 312 308 303
311 305 300 297 298 304 309 309 314 314 317 320 325 326 328 333 334 336 337 338 338 338 338 338 337 336 335 334 333 332 330 329 327 326 325 323 323 322 322 321 319 316 312 308
309 309 304 296 293 306 308 307 317 315 319 323 326 327 328 332 333 335 336 336 338 338 339 340 339 339 337 336 335 334 332 331 329 328 328 327 326 326 326 325 324 322 317 313
312 313 307 295 299 304 303 307 313 315 319 321 323 326 329 331 332 334 336 336 338 339 340 341 341 340 339 338 336 335 334 333 332 331 331 330 330 329 330 330 329 327 324 320
298 297 287 290 296 298 300 303 306 310 314 318 322 325 328 331 333 334 336 337 338 339 340 341 341 341 340 339 338 337 336 335 334 334 334 334 333 333 333 333 333 332 329 325
289 286 288 293 297 299 301 303 306 309 314 318 321 325 328 331 333 334 335 336 337 338 340 341 341 342 341 340 340 339 338 337 337 337 337 337 337 337 336 336 337 336 334 330
297 292 289 293 295 298 301 303 306 310 314 317 320 324 327 330 332 333 334 336 337 338 340 341 342 342 342 342 341 340 339 339 338 339 340 340 340 340 339 339 340 340 339 336
298 298 295 296 297 299 301 304 307 311 313 316 319 323 327 330 332 333 334 335 336 338 340 341 342 343 343 342 342 342 340 340 340 341 342 342 342 342 342 342 344 345 346 345
297 298 298 300 300 301 303 305 307 310 313 315 319 323 326 328 330 331 332 333 335 337 339 341 342 342 342 343 343 342 342 341 342 343 344 345 345 344 344 345 347 349 351 353
296 298 298 299 300 303 304 306 307 309 311 314 318 321 323 326 328 329 331 332 334 336 338 340 341 342 342 343 343 343 343 343 343 345 346 346 347 347 347 347 349 352 355 357
297 298 298 298 298 300 302 304 306 309 311 313 316 319 322 324 326 327 329 331 332 334 336 338 340 341 342 343 343 343 344 344 345 347 348 348 349 349 350 350 351 354 357 0
295 296 298 298 297 298 299 302 304 307 309 312 315 318 320 322 324 326 328 329 331 332 334 336 338 340 341 343 343 343 344 345 346 348 350 351 351 352 353 354 355 355 359 2
292 293 295 295 296 298 299 301 304 306 308 311 313 316 318 320 321 324 326 328 330 332 333 335 337 339 340 342 343 344 344 346 347 349 352 353 354 355 357 359 359 360 1 4
291 291 292 293 295 296 298 300 302 304 306 308 311 313 315 317 319 321 323 325 327 329 331 333 335 337 339 342 343 344 344 346 347 349 353 355 356 358 1 3 5 7 8 8
289 289 290 291 293 295 297 298 300 301 303 304 306 309 312 313 315 317 319 321 323 325 328 330 332 335 338 341 342 343 344 345 347 349 353 356 357 360 3 6 8 10 11 12
286 287 288 290 292 294 295 295 296 297 299 301 302 305 308 309 311 313 314 316 319 322 325 327 329 332 336 339 341 343 343 345 346 348 352 355 358 0 4 6 10 13 13 15
284 285 286 288 290 291 292 292 293 294 295 296 298 301 303 304 305 308 310 312 315 319 322 324 327 330 333 337 340 342 343 344 345 347 351 355 358 1 5 8 13 18 20 18
282 283 284 285 286 287 288 289 290 290 291 291 292 295 297 299 300 303 306 309 312 315 318 321 324 326 330 334 338 340 341 342 343 344 349 354 358 2 6 10 13 17 20 20
283 283 283 283 284 285 286 286 287 287 287 288 288 290 292 293 295 298 301 304 306 310 313 317 320 323 326 331 335 338 339 339 340 341 344 350 356 2 6 10 13 18 21 23
283 283 283 283 284 284 285 285 285 285 285 286 286 288 289 290 292 294 295 299 301 304 308 313 316 319 322 326 331 334 336 336 336 337 339 344 351 359 7 11 14 19 25 29
282 282 282 283 284 284 284 285 284 284 285 286 286 287 288 289 289 289 291 295 298 299 303 307 310 313 317 322 327 330 332 333 333 331 333 338 345 353 2 10 15 22 28 32
281 281 282 283 284 284 285 285 285 285 285 285 286 287 288 288 288 287 289 291 293 295 298 301 305 308 312 316 321 325 328 329 329 326 324 329 336 345 356 6 16 23 29 34
281 282 282 283 284 284 285 285 285 286 286 286 287 287 287 285 284 285 286 286 288 291 293 297 300 302 306 310 315 319 323 325 324 321 315 315 321 331 345 359 11 19 27 35
283 283 283 283 284 284 285 286 286 287 286 284 284 285 285 282 281 282 282 283 286 289 290 293 296 298 301 305 310 314 319 321 320 316 310 303 302 306 318 336 354 7 20 32